Oak Ridge, TN

1:16 AM EST on February 27, 2017 (GMT -0500)
Oak Ridge

Weather History for KOQT - April, 2013

Change the Weather History Date:

Sunday, April 28, 2013

  Actual Average (KTYS) Record (KTYS)
Temperature  
Mean Temperature 56 °F -  
Max Temperature 61 °F 72 °F 90 °F (1957)
Min Temperature 51 °F 50 °F 35 °F (1928)
Degree Days  
Heating Degree Days 10    
Growing Degree Days 6 (Base 50)    
Moisture  
Dew Point 54 °F    
Average Humidity 92    
Maximum Humidity 100    
Minimum Humidity 82    
Precipitation  
Precipitation 1.82 in - - ()
Sea Level Pressure  
Sea Level Pressure 30.06 in    
Wind  
Wind Speed 1 mph (East)    
Max Wind Speed 6 mph    
Max Gust Speed -    
Visibility 6 miles    
Events Fog , Rain    
Averages and records for this station are not official NWS values.
T = Trace of Precipitation, MM = Missing Value Source: NWS Daily Summary

Daily Weather History Graph

Daily Weather History Graph

Search for Another Location

Airport or City:

Trip Planner

Search our weather history database for the weather conditions in past years. The results will help you decide how hot, cold, wet, or windy it might be!

Date:

Astronomy

Apr. 28, 2013 Rise Set
Actual Time 6:47 AM EDT 8:21 PM EDT
Civil Twilight 6:20 AM EDT 8:49 PM EDT
Nautical Twilight 5:47 AM EDT 9:22 PM EDT
Astronomical Twilight 5:12 AM EDT 9:56 PM EDT
Moon 11:48 PM EDT (4/28) 9:06 AM EDT (4/28)
Length of Visible Light 14h 29m
Length of Day
13h 34m
Waning Gibbous, 89% of the Moon is Illuminated
Apr 28
Waning Gibbous
May 2
Last Quarter
May 9
New
May 18
First Quarter
May 25
Full

Hourly Weather History & Observations

Time (EDT) Temp. Dew Point Humidity Pressure Visibility Wind Dir Wind Speed Gust Speed Precip Events Conditions
12:36 AM 53.6 °F 51.8 °F 94% 30.12 in 5.0 mi Calm Calm - N/A   Overcast
12:53 AM 54.0 °F 52.0 °F 93% 30.12 in 4.0 mi Calm Calm - N/A   Overcast
1:28 AM 53.6 °F 51.8 °F 94% 30.09 in 1.8 mi Calm Calm - N/A   Mostly Cloudy
1:38 AM 53.6 °F 51.8 °F 94% 30.09 in 0.5 mi Calm Calm - N/A Fog Fog
1:53 AM 53.1 °F 51.1 °F 93% 30.09 in 0.2 mi Calm Calm - N/A Fog Fog
2:10 AM 53.6 °F 51.8 °F 94% 30.08 in 0.2 mi Calm Calm - N/A Fog Fog
2:22 AM 51.8 °F 51.8 °F 100% 30.07 in 0.2 mi Calm Calm - N/A Fog Fog
2:53 AM 53.1 °F 51.1 °F 93% 30.08 in 0.8 mi Calm Calm - N/A   Overcast
3:08 AM 53.6 °F 51.8 °F 94% 30.07 in 4.0 mi Calm Calm - N/A   Overcast
3:53 AM 53.1 °F 52.0 °F 96% 30.08 in 2.5 mi Calm Calm - 0.01 in Rain Light Rain
4:03 AM 53.6 °F 51.8 °F 94% 30.08 in 3.0 mi East 3.5 mph - 0.01 in Rain Light Rain
4:13 AM 53.6 °F 51.8 °F 94% 30.09 in 3.0 mi Calm Calm - 0.03 in Rain Rain
4:53 AM 53.1 °F 52.0 °F 96% 30.06 in 5.0 mi ESE 4.6 mph - 0.15 in Rain Light Rain
5:06 AM 53.6 °F 51.8 °F 94% 30.07 in 8.0 mi East 5.8 mph - 0.00 in   Overcast
5:27 AM 53.6 °F 51.8 °F 94% 30.10 in 1.8 mi Calm Calm - 0.04 in Rain Heavy Rain
5:44 AM 53.6 °F 51.8 °F 94% 30.10 in 2.0 mi ESE 3.5 mph - 0.26 in Rain Heavy Rain
5:53 AM 54.0 °F 52.0 °F 93% 30.10 in 3.0 mi ESE 3.5 mph - 0.31 in Rain Rain
6:53 AM 54.0 °F 52.0 °F 93% 30.11 in 2.5 mi Calm Calm - 0.23 in Rain Heavy Rain
7:02 AM 53.6 °F 51.8 °F 94% 30.10 in 3.0 mi ENE 3.5 mph - 0.06 in Rain Heavy Rain
7:23 AM 53.6 °F 51.8 °F 94% 30.06 in 9.0 mi East 5.8 mph - 0.13 in Rain Light Rain
7:53 AM 55.0 °F 52.0 °F 89% 30.07 in 10.0 mi Calm Calm - 0.13 in   Overcast
8:53 AM 55.0 °F 53.1 °F 93% 30.09 in 10.0 mi Calm Calm - N/A   Overcast
9:17 AM 55.4 °F 53.6 °F 94% 30.12 in 1.8 mi Calm Calm - 0.03 in Rain Heavy Rain
9:27 AM 55.4 °F 53.6 °F 94% 30.11 in 2.0 mi Calm Calm - 0.08 in Rain Heavy Rain
9:34 AM 55.4 °F 53.6 °F 94% 30.11 in 1.8 mi Calm Calm - 0.11 in Rain Rain
9:42 AM 55.4 °F 53.6 °F 94% 30.12 in 2.5 mi Calm Calm - 0.15 in Rain Rain
9:50 AM 55.4 °F 53.6 °F 94% 30.12 in 3.0 mi Calm Calm - 0.17 in Rain Rain
9:53 AM 55.0 °F 53.1 °F 93% 30.13 in 3.0 mi Calm Calm - 0.18 in Rain Rain
9:59 AM 55.4 °F 53.6 °F 94% 30.13 in 2.0 mi Calm Calm - 0.02 in Rain Rain
10:03 AM 55.4 °F 53.6 °F 94% 30.13 in 1.8 mi Calm Calm - 0.03 in Rain Heavy Rain
10:10 AM 55.4 °F 53.6 °F 94% 30.14 in 0.8 mi Calm Calm - 0.07 in Rain Heavy Rain
10:22 AM 55.4 °F 53.6 °F 94% 30.12 in 1.8 mi ENE 4.6 mph - 0.19 in Rain Rain
10:29 AM 55.4 °F 53.6 °F 94% 30.11 in 2.5 mi ENE 5.8 mph - 0.22 in Rain Rain
10:44 AM 55.4 °F 53.6 °F 94% 30.08 in 2.5 mi East 5.8 mph - 0.28 in Rain Heavy Rain
10:53 AM 55.0 °F 54.0 °F 96% 30.09 in 2.5 mi ENE 3.5 mph - 0.33 in Rain Heavy Rain
11:01 AM 55.4 °F 53.6 °F 94% 30.11 in 1.8 mi West 3.5 mph - 0.04 in Rain Heavy Rain
11:08 AM 55.4 °F 53.6 °F 94% 30.12 in 1.0 mi Calm Calm - 0.08 in Rain Heavy Rain
11:32 AM 55.4 °F 53.6 °F 94% 30.10 in 2.0 mi Variable 4.6 mph - 0.27 in Rain Rain
11:43 AM 55.4 °F 53.6 °F 94% 30.09 in 5.0 mi Variable 3.5 mph - 0.30 in Rain Light Rain
11:53 AM 55.9 °F 54.0 °F 93% 30.08 in 6.0 mi ENE 5.8 mph - 0.31 in Rain Light Rain
12:03 PM 55.4 °F 53.6 °F 94% 30.06 in 10.0 mi East 5.8 mph - 0.00 in Rain Light Rain
12:33 PM 55.4 °F 53.6 °F 94% 30.09 in 1.8 mi Calm Calm - 0.04 in Rain Rain
12:43 PM 55.4 °F 53.6 °F 94% 30.08 in 3.0 mi Calm Calm - 0.08 in Rain Rain
12:53 PM 57.0 °F 55.0 °F 93% 30.08 in 4.0 mi Calm Calm - 0.09 in Rain Rain
1:35 PM 57.2 °F 55.4 °F 94% 30.03 in 9.0 mi SE 5.8 mph - 0.05 in Rain Light Rain
1:53 PM 57.9 °F 55.0 °F 90% 30.05 in 10.0 mi WNW 4.6 mph - 0.06 in Rain Light Rain
2:05 PM 57.2 °F 55.4 °F 94% 30.05 in 10.0 mi Calm Calm - 0.00 in Rain Light Rain
2:17 PM 57.2 °F 55.4 °F 94% 30.03 in 9.0 mi Variable 3.5 mph - 0.00 in Rain Light Rain
2:53 PM 57.9 °F 55.9 °F 93% 30.03 in 10.0 mi Calm Calm - 0.01 in Rain Light Rain
3:53 PM 59.0 °F 55.0 °F 87% 29.99 in 10.0 mi Calm Calm - 0.01 in   Overcast
4:17 PM 60.8 °F 55.4 °F 82% 29.98 in 10.0 mi Calm Calm - N/A   Overcast
4:53 PM 60.1 °F 55.9 °F 86% 29.96 in 10.0 mi Calm Calm - N/A   Overcast
5:16 PM 60.8 °F 55.4 °F 82% 29.98 in 10.0 mi Calm Calm - N/A   Overcast
5:53 PM 60.1 °F 57.0 °F 90% 29.97 in 10.0 mi Calm Calm - N/A   Mostly Cloudy
6:02 PM 60.8 °F 57.2 °F 88% 29.98 in 10.0 mi Calm Calm - N/A   Scattered Clouds
6:53 PM 60.1 °F 55.9 °F 86% 29.96 in 10.0 mi Variable 3.5 mph - N/A   Clear
7:37 PM 60.8 °F 55.4 °F 82% 29.97 in 10.0 mi Calm Calm - N/A   Overcast
7:49 PM 60.8 °F 55.4 °F 82% 29.97 in 10.0 mi SSW 3.5 mph - N/A   Overcast
7:53 PM 60.1 °F 55.9 °F 86% 29.96 in 10.0 mi Calm Calm - N/A   Overcast
8:05 PM 59.0 °F 55.4 °F 88% 29.97 in 10.0 mi Calm Calm - N/A   Overcast
8:50 PM 59.0 °F 55.4 °F 88% 29.97 in 10.0 mi Calm Calm - N/A   Overcast
8:53 PM 59.0 °F 55.9 °F 90% 29.97 in 10.0 mi Calm Calm - N/A   Overcast
9:18 PM 59.0 °F 55.4 °F 88% 29.99 in 10.0 mi Calm Calm - N/A   Mostly Cloudy
9:46 PM 59.0 °F 55.4 °F 88% 29.99 in 10.0 mi Calm Calm - N/A   Overcast
9:53 PM 59.0 °F 55.9 °F 90% 29.99 in 10.0 mi Calm Calm - N/A   Overcast
10:17 PM 59.0 °F 55.4 °F 88% 30.00 in 10.0 mi Calm Calm - N/A   Overcast
10:43 PM 59.0 °F 55.4 °F 88% 30.00 in 10.0 mi Variable 3.5 mph - N/A   Overcast
10:53 PM 59.0 °F 55.9 °F 90% 30.00 in 10.0 mi Calm Calm - N/A   Overcast
11:53 PM 59.0 °F 55.0 °F 87% 29.99 in 10.0 mi Calm Calm - N/A   Overcast